Location: Newark
(37.9500°N, 13.4167°E)
Time: 02:17:58
(UTC+00:00)

ISS - Visible Passes

Search period start: 26 January 2020 00:00
Search period end: 05 February 2020 00:00
Orbit: 416 x 423 km, 51.6° (Epoch: 26 January)

Date Brightness Start Highest point End Pass type
(mag) Time Alt. Az. Time Alt. Az. Time Alt. Az.
26 Jan -1.2 17:28:19 10° NW 17:29:55 13° NNW 17:31:30 10° N visible
01 Feb -1.2 17:36:36 10° N 17:37:02 10° NNE 17:37:29 10° NNE visible
02 Feb -1.2 18:24:15 10° NNW 18:24:58 14° NNW 18:24:58 14° NNW visible
03 Feb -1.8 17:36:59 10° NNW 17:39:12 16° NNE 17:39:35 16° NNE visible
04 Feb -2.0 18:25:28 10° NW 18:27:15 27° NNW 18:27:15 27° NNW visible
